User: anonymous   Login
Location: St Andrew
(49.4460°N, 2.5750°W)
Time: 01:59:30
(UTC+00:00)
Language:

Iridium 66 - Orbit

View from above orbital plane
View from above orbital plane
View from above satellite
View from above satellite

Ground track
Ground track

The orbit data is extracted from the following two-line orbital elements,

1 25289U 98021E   14326.36735943  .00000632  00000-0  21858-3 0  9507
2 25289 086.3976 255.7469 0002082 102.5115 034.3205 14.34226891870598
Epoch (UTC): 22 November 2014 08:48:59
Eccentricity: 0.0002082
inclination: 86.3976°
perigee height: 776 km
apogee height: 779 km
right ascension of ascending node: 255.7469°
argument of perigee: 102.5115°
revolutions per day: 14.34226891
mean anomaly at epoch: 34.3205°
orbit number at epoch: 87059

The dashed part of the orbit path shows where the satellite is in the earth's shadow,  

DLR